User: anonymous   Login
Location: Unspecified
(0.0000°N, 0.0000°E)
Time: 10:38:23
(UTC+01:00)
Language:

Cosmos 1626 Rocket - Orbit

View from above orbital plane
View from above orbital plane
View from above satellite
View from above satellite

Ground track
Ground track

The orbit data is extracted from the following two-line orbital elements,

1 15495U 85009B   16343.19183136  .00000088  00000-0  77131-5 0  9995
2 15495  82.5242   6.3703 0018839 237.9675 121.9710 14.83744524721649
Epoch (UTC): 08 December 2016 04:36:14
Eccentricity: 0.0018839
inclination: 82.5242°
perigee height: 604 km
apogee height: 631 km
right ascension of ascending node: 6.3703°
argument of perigee: 237.9675°
revolutions per day: 14.83744524
mean anomaly at epoch: 121.9710°
orbit number at epoch: 72164

The dashed part of the orbit path shows where the satellite is in the earth's shadow,  

DLR